Imperial, NE

8:03 AM MDT on May 24, 2017 (GMT -0600)
Imperial Municipal

Weather History for KIML - August, 2013

Change the Weather History Date:

Monday, August 5, 2013

  Actual Average Record
Temperature  
Mean Temperature 79 °F 76 °F  
Max Temperature 95 °F 90 °F 109 °F (1934)
Min Temperature 62 °F 62 °F 47 °F (1895)
Degree Days  
Heating Degree Days 0 0  
Month to date heating degree days 0 0  
Since 1 June heating degree days 32 36  
Cooling Degree Days 14 11  
Month to date cooling degree days 55 56  
Year to date cooling degree days 676 640  
Since 1 June cooling degree days 608 596  
Growing Degree Days 28 (Base 50)    
Moisture  
Dew Point 63 °F    
Average Humidity 66    
Maximum Humidity 100    
Minimum Humidity 32    
Precipitation  
Precipitation 0.02 in 0.10 in 1.39 in (1897)
Sea Level Pressure  
Sea Level Pressure 29.90 in    
Wind  
Wind Speed 7 mph (SE)    
Max Wind Speed 25 mph    
Max Gust Speed 32 mph    
Visibility 8 miles    
Events Fog , Rain , Thunderstorm    
T = Trace of Precipitation, MM = Missing Value Source: NWS Daily Summary

Daily Weather History Graph

Daily Weather History Graph

Search for Another Location

Airport or City:

Trip Planner

Search our weather history database for the weather conditions in past years. The results will help you decide how hot, cold, wet, or windy it might be!

Date:

Astronomy

Aug. 05, 2013 Rise Set
Actual Time 5:47 AM MDT 7:56 PM MDT
Civil Twilight 5:17 AM MDT 8:26 PM MDT
Nautical Twilight 4:40 AM MDT 9:03 PM MDT
Astronomical Twilight 3:59 AM MDT 9:43 PM MDT
Moon 4:44 AM MDT (8/5) 6:57 PM MDT (8/5)
Length of Visible Light 15h 09m
Length of Day
14h 08m
Waning Crescent, 1% of the Moon is Illuminated
Aug 5
Waning Crescent
Aug 6
New
Aug 14
First Quarter
Aug 20
Full
Aug 28
Last Quarter

Hourly Weather History & Observations

Time (MDT) Temp. Heat Index Dew Point Humidity Pressure Visibility Wind Dir Wind Speed Gust Speed Precip Events Conditions
12:53 AM 68.0 °F - 66.0 °F 93% 29.95 in 10.0 mi SE 4.6 mph - N/A   Clear
1:53 AM 69.1 °F - 66.9 °F 93% 29.91 in 10.0 mi South 8.1 mph - N/A   Clear
2:53 AM 66.9 °F - 66.0 °F 97% 29.90 in 6.0 mi SSE 3.5 mph - N/A   Clear
3:53 AM 68.0 °F - 66.0 °F 93% 29.88 in 5.0 mi SSW 4.6 mph - N/A   Clear
4:53 AM 64.9 °F - 64.0 °F 97% 29.87 in 3.0 mi SSW 4.6 mph - N/A   Clear
5:13 AM 64.4 °F - 62.6 °F 94% 29.97 in 1.8 mi Calm Calm - N/A   Clear
5:20 AM 62.6 °F - 62.6 °F 100% 29.97 in 0.5 mi South 3.5 mph - N/A Fog Fog
5:31 AM 64.4 °F - 62.6 °F 94% 29.97 in 1.2 mi Calm Calm - N/A   Clear
5:35 AM 62.6 °F - 62.6 °F 100% 29.98 in 3.0 mi Calm Calm - N/A   Clear
5:53 AM 64.9 °F - 63.0 °F 93% 29.88 in 3.0 mi SW 4.6 mph - N/A   Clear
6:53 AM 66.9 °F - 64.9 °F 93% 29.89 in 7.0 mi SW 6.9 mph - N/A   Clear
7:53 AM 70.0 °F - 64.9 °F 84% 29.91 in 10.0 mi SW 5.8 mph - N/A   Clear
8:17 AM 69.8 °F - 64.4 °F 83% 30.04 in 10.0 mi North 9.2 mph 24.2 mph N/A   Partly Cloudy
8:53 AM 72.0 °F - 66.0 °F 81% 29.95 in 10.0 mi North 5.8 mph - N/A   Clear
9:53 AM 80.1 °F 82.1 °F 66.0 °F 62% 29.92 in 10.0 mi ENE 8.1 mph - N/A   Clear
10:53 AM 84.9 °F 86.1 °F 64.0 °F 49% 29.90 in 10.0 mi ENE 8.1 mph - N/A   Clear
11:53 AM 88.0 °F 87.9 °F 61.0 °F 40% 29.88 in 10.0 mi ENE 4.6 mph - N/A   Clear
12:53 PM 89.1 °F 90.0 °F 63.0 °F 42% 29.87 in 10.0 mi Variable 4.6 mph - N/A   Clear
1:53 PM 93.0 °F 92.3 °F 59.0 °F 32% 29.83 in 10.0 mi NE 8.1 mph - N/A   Clear
2:53 PM 93.0 °F 93.8 °F 62.1 °F 36% 29.82 in 10.0 mi Variable 5.8 mph - N/A   Clear
3:53 PM 93.9 °F 94.0 °F 61.0 °F 33% 29.81 in 10.0 mi NE 9.2 mph - N/A   Clear
4:53 PM 93.9 °F 93.6 °F 60.1 °F 32% 29.80 in 10.0 mi North 6.9 mph - N/A   Clear
5:31 PM 86.0 °F 90.4 °F 69.8 °F 58% 29.92 in 10.0 mi South 15.0 mph 24.2 mph N/A Thunderstorm Mostly Cloudy
5:40 PM 87.8 °F 91.4 °F 68.0 °F 52% 29.92 in 10.0 mi South 13.8 mph - N/A   Scattered Clouds
5:48 PM 87.8 °F 90.4 °F 66.2 °F 49% 29.91 in 10.0 mi South 11.5 mph - N/A Thunderstorm Scattered Clouds
5:53 PM 88.0 °F 90.3 °F 66.0 °F 48% 29.81 in 10.0 mi South 12.7 mph - N/A Thunderstorm Partly Cloudy
6:17 PM 78.8 °F - 62.6 °F 57% 29.95 in 10.0 mi East 19.6 mph 28.8 mph N/A Thunderstorm Scattered Clouds
6:53 PM 70.0 °F - 59.0 °F 68% 29.89 in 10.0 mi ESE 18.4 mph 23.0 mph N/A Thunderstorm Thunderstorm
7:53 PM 66.9 °F - 59.0 °F 76% 29.91 in 10.0 mi East 6.9 mph - 0.00 in Rain , Thunderstorm Light Rain
8:53 PM 66.9 °F - 60.1 °F 79% 29.88 in 10.0 mi West 5.8 mph - 0.02 in Thunderstorm Mostly Cloudy
9:21 PM 69.8 °F - 59.0 °F 68% 29.98 in 10.0 mi WSW 16.1 mph 23.0 mph N/A   Clear
9:53 PM 70.0 °F - 59.0 °F 68% 29.88 in 10.0 mi North 9.2 mph 23.0 mph N/A   Scattered Clouds
10:53 PM 66.9 °F - 60.1 °F 79% 29.88 in 10.0 mi SE 4.6 mph - N/A   Clear
11:53 PM 66.9 °F - 57.9 °F 73% 29.83 in 10.0 mi Calm Calm - N/A   Clear